User: anonymous   Login
Location: Bakhuizen
(52.8696°N, 5.4575°E)
Time: 03:45:05
(UTC+00:00)
Language:

Cosmos 1833 - Orbit

View from above orbital plane
View from above orbital plane
View from above satellite
View from above satellite

Ground track
Ground track

The orbit data is extracted from the following two-line orbital elements,

1 17589U 87027A   21207.54970966 -.00000113  00000-0 -34592-4 0  9996
2 17589  70.9207 271.8263 0022739 233.3154 126.5878 14.12916993772222
Epoch (UTC): 26 July 2021 13:11:34
Eccentricity: 0.0022739
inclination: 70.9207°
perigee height: 833 km
apogee height: 866 km
right ascension of ascending node: 271.8263°
argument of perigee: 233.3154°
revolutions per day: 14.12916993
mean anomaly at epoch: 126.5878°
orbit number at epoch: 77222

The dashed part of the orbit path shows where the satellite is in the earth's shadow,  

DLR